Date String (YYYY-MM-DD hh:mm:ss) UTC,Instrument flags,absolute air pressure of the measurement (hPa),sample flow rate (lpm),inlet stack bypass flow (lpm),air temperature of the measurement (°C),ambient temperature measured by the external sensor (°C),aerosol sample conditioner tube jacket temperature (°C),OPC LED temperature (°C),internal box temperature (°C),relative humidity of the measurement (%),span deviation,mass concentration of particles derived from Lorenz-Mie calculation of OPC scattering (μg/m³),mass concentration of particles derived from Lorenz-Mie calculation of OPC scattering (μg/m³),mass concentration of particles derived from Lorenz-Mie calculation of OPC scattering (μg/m³)
DateTimeUTC,F1_M11,P_M11,Q1_M11,Q2_M11,T1_M11,T2_M11,T3_M11,T4_M11,T5_M11,U1_M11,ZSPAN_M11,X0_M11,X2_M11,X1_M11
2024-03-24 12:00:00,SystemResetWarning,0810.0,5.00,000.00,021.6,020.9,000.0,030.4,023.5,21.8,0002.1,0042.24,0016.62,0014.02
2024-03-24 12:01:00,SystemResetWarning,0810.0,5.00,000.00,021.6,020.9,000.0,030.4,023.5,21.8,0001.7,0040.52,0016.72,0014.07
2024-03-24 12:02:00,SystemResetWarning,0809.9,5.00,000.00,021.6,020.8,000.0,030.3,023.5,21.7,0001.3,0039.57,0016.79,0014.09
2024-03-24 12:03:00,SystemResetWarning,0809.8,5.01,000.00,021.6,020.8,000.0,030.3,023.5,21.7,0001.2,0041.18,0016.80,0014.10
2024-03-24 12:04:00,SystemResetWarning,0809.8,5.01,000.00,021.6,020.8,000.0,030.3,023.5,21.7,0001.3,0041.84,0016.81,0014.13
2024-03-24 12:05:00,SystemResetWarning,0809.9,5.00,000.00,021.6,020.8,000.0,030.3,023.5,21.7,0001.1,0041.25,0016.85,0014.13
2024-03-24 12:06:00,SystemResetWarning,0810.0,5.00,000.00,021.6,020.8,000.0,030.3,023.5,21.8,0001.2,0041.70,0016.79,0014.11
2024-03-24 12:07:00,SystemResetWarning,0809.9,5.00,000.00,021.6,020.8,000.0,030.3,023.4,22.5,0001.1,0042.50,0016.82,0014.15
2024-03-24 12:08:00,SystemResetWarning,0809.8,5.00,000.00,021.6,020.8,000.0,030.3,023.4,23.2,0001.0,0041.81,0017.03,0014.24
2024-03-24 12:09:00,SystemResetWarning,0809.8,5.00,000.00,021.5,020.8,000.0,030.3,023.4,22.4,0001.0,0040.40,0017.11,0014.30
2024-03-24 12:10:00,SystemResetWarning,0809.9,5.00,000.00,021.5,020.8,000.0,030.3,023.4,22.1,0001.1,0040.40,0017.27,0014.37
2024-03-24 12:11:00,SystemResetWarning,0809.8,5.01,000.00,021.5,020.8,000.0,030.2,023.4,22.1,0001.1,0040.10,0017.46,0014.43
2024-03-24 12:12:00,SystemResetWarning,0809.8,5.01,000.00,021.5,020.8,000.0,030.2,023.4,22.1,0001.2,0040.79,0017.54,0014.49
2024-03-24 12:13:00,SystemResetWarning,0810.0,5.00,000.00,021.5,020.7,000.0,030.2,023.4,22.1,0001.4,0040.38,0017.60,0014.57
2024-03-24 12:14:00,SystemResetWarning,0810.0,5.00,000.00,021.5,020.7,000.0,030.2,023.4,22.1,0001.5,0039.46,0017.76,0014.63
2024-03-24 12:15:00,SystemResetWarning,0810.1,4.99,000.00,021.5,020.7,000.0,030.2,023.4,22.0,0001.4,0040.43,0017.81,0014.66
2024-03-24 12:16:00,SystemResetWarning,0810.1,5.00,000.00,021.5,020.7,000.0,030.2,023.4,21.9,0001.7,0042.17,0017.85,0014.70
2024-03-24 12:17:00,SystemResetWarning,0810.1,5.00,000.00,021.5,020.7,000.0,030.2,023.3,21.9,0001.6,0042.01,0017.91,0014.75
2024-03-24 12:18:00,SystemResetWarning,0810.1,5.00,000.00,021.5,020.7,000.0,030.2,023.3,21.9,0001.9,0041.80,0017.92,0014.79
2024-03-24 12:19:00,SystemResetWarning,0810.0,5.00,000.00,021.5,020.7,000.0,030.2,023.3,21.9,0002.0,0042.30,0017.80,0014.78
2024-03-24 12:20:00,SystemResetWarning,0810.1,5.00,000.00,021.5,020.7,000.0,030.2,023.3,21.9,0001.9,0042.45,0017.76,0014.77
2024-03-24 12:21:00,SystemResetWarning,0810.0,5.01,000.00,021.5,020.7,000.0,030.2,023.3,21.9,0001.8,0044.29,0017.68,0014.76
2024-03-24 12:22:00,SystemResetWarning,0810.0,5.01,000.00,021.5,020.7,000.0,030.2,023.3,21.9,0002.0,0044.80,0017.56,0014.77
2024-03-24 12:23:00,SystemResetWarning,0810.0,5.00,000.00,021.4,020.7,000.0,030.1,023.3,21.9,0002.0,0045.26,0017.59,0014.77
2024-03-24 12:24:00,SystemResetWarning,0810.0,5.00,000.00,021.4,020.7,000.0,030.1,023.3,21.8,0002.0,0045.87,0017.64,0014.77
2024-03-24 12:25:00,SystemResetWarning,0810.1,5.00,000.00,021.4,020.7,000.0,030.1,023.3,21.8,0002.1,0044.97,0017.60,0014.77
2024-03-24 12:26:00,SystemResetWarning,0810.1,5.00,000.00,021.4,020.7,000.0,030.1,023.3,21.8,0002.4,0042.83,0017.62,0014.79
2024-03-24 12:27:00,SystemResetWarning,0810.1,5.00,000.00,021.4,020.7,000.0,030.1,023.3,21.8,0002.3,0040.97,0017.65,0014.79
2024-03-24 12:28:00,SystemResetWarning,0810.1,5.00,000.00,021.4,020.7,000.0,030.1,023.3,21.7,0002.4,0042.09,0017.67,0014.80
2024-03-24 12:29:00,SystemResetWarning,0810.2,5.00,000.00,021.4,020.7,000.0,030.1,023.3,21.6,0002.4,0043.35,0017.67,0014.80
2024-03-24 12:30:00,SystemResetWarning,0810.2,4.99,000.00,021.4,020.7,000.0,030.1,023.3,21.6,0002.6,0043.08,0017.75,0014.81
2024-03-24 12:31:00,SystemResetWarning,0810.1,5.00,000.00,021.4,020.7,000.0,030.1,023.3,21.7,0002.7,0043.31,0017.77,0014.83
2024-03-24 12:32:00,SystemResetWarning,0810.1,5.00,000.00,021.4,020.7,000.0,030.1,023.3,21.8,0003.0,0041.41,0017.76,0014.85
2024-03-24 12:33:00,SystemResetWarning,0810.0,5.00,000.00,021.4,020.7,000.0,030.1,023.3,21.9,0003.1,0041.23,0017.85,0014.87
2024-03-24 12:34:00,SystemResetWarning,0810.1,5.00,000.00,021.4,020.7,000.0,030.1,023.3,21.9,0002.7,0040.85,0017.88,0014.92
2024-03-24 12:35:00,SystemResetWarning,0810.1,5.00,000.00,021.4,020.6,000.0,030.1,023.3,21.8,0002.6,0040.61,0017.95,0015.01
2024-03-24 12:36:00,SystemResetWarning,0810.2,5.01,000.00,021.4,020.6,000.0,030.1,023.2,21.7,0002.4,0041.16,0017.98,0015.09
2024-03-24 12:37:00,SystemResetWarning,0810.2,5.00,000.00,021.4,020.6,000.0,030.1,023.2,21.7,0002.2,0041.14,0017.99,0015.12
2024-03-24 12:38:00,SystemResetWarning,0810.1,5.01,000.00,021.3,020.6,000.0,030.1,023.2,21.6,0002.1,0042.82,0018.14,0015.19
2024-03-24 12:39:00,SystemResetWarning,0810.1,5.00,000.00,021.3,020.6,000.0,030.0,023.2,21.7,0002.1,0043.65,0018.20,0015.27
2024-03-24 12:40:00,SystemResetWarning,0810.1,5.00,000.00,021.3,020.6,000.0,030.0,023.2,21.8,0002.0,0043.10,0018.31,0015.34
2024-03-24 12:41:00,SystemResetWarning,0810.0,5.00,000.00,021.3,020.6,000.0,030.0,023.2,21.9,0001.8,0043.97,0018.37,0015.43
2024-03-24 12:42:00,SystemResetWarning,0810.1,5.00,000.00,021.3,020.6,000.0,030.0,023.2,21.7,0001.5,0044.09,0018.40,0015.50
2024-03-24 12:43:00,SystemResetWarning,0810.1,5.00,000.00,021.3,020.6,000.0,030.0,023.2,21.7,0001.3,0043.36,0018.45,0015.55
2024-03-24 12:44:00,SystemResetWarning,0810.0,5.00,000.00,021.3,020.6,000.0,030.0,023.2,21.7,0001.1,0042.78,0018.51,0015.60
2024-03-24 12:45:00,SystemResetWarning,0810.0,5.01,000.00,021.3,020.6,000.0,030.0,023.2,21.7,0001.4,0043.31,0018.50,0015.62
2024-03-24 12:46:00,SystemResetWarning,0810.0,5.00,000.00,021.3,020.6,000.0,030.0,023.2,21.9,0001.3,0043.22,0018.44,0015.62
2024-03-24 12:47:00,SystemResetWarning,0810.0,5.00,000.00,021.3,020.5,000.0,030.0,023.2,21.9,0001.5,0043.18,0018.42,0015.60
2024-03-24 12:48:00,SystemResetWarning,0809.9,5.00,000.00,021.3,020.5,000.0,030.0,023.2,21.9,0001.8,0042.89,0018.48,0015.62
2024-03-24 12:49:00,SystemResetWarning,0809.9,5.00,000.00,021.3,020.5,000.0,030.0,023.1,22.0,0001.8,0042.10,0018.37,0015.63
2024-03-24 12:50:00,SystemResetWarning,0809.9,5.00,000.00,021.3,020.5,000.0,030.0,023.1,21.9,0002.0,0040.61,0018.34,0015.64
2024-03-24 12:51:00,SystemResetWarning,0809.9,5.00,000.00,021.3,020.5,000.0,030.0,023.1,21.9,0002.0,0040.12,0018.31,0015.66
2024-03-24 12:52:00,SystemResetWarning,0809.9,5.00,000.00,021.2,020.5,000.0,029.9,023.1,21.9,0002.1,0038.68,0018.32,0015.68
2024-03-24 12:53:00,SystemResetWarning,0809.9,4.99,000.00,021.2,020.5,000.0,029.9,023.1,21.9,0002.1,0038.45,0018.41,0015.68
2024-03-24 12:54:00,SystemResetWarning,0810.0,5.00,000.00,021.2,020.5,000.0,029.9,023.1,22.0,0002.3,0039.96,0018.51,0015.72
2024-03-24 12:55:00,SystemResetWarning,0810.0,5.00,000.00,021.2,020.5,000.0,029.9,023.1,21.9,0002.2,0040.60,0018.53,0015.74
2024-03-24 12:56:00,SystemResetWarning,0810.0,5.00,000.00,021.2,020.5,000.0,029.9,023.1,21.8,0001.7,0040.14,0018.59,0015.76
2024-03-24 12:57:00,SystemResetWarning,0809.9,5.00,000.00,021.2,020.5,000.0,029.9,023.1,22.0,0001.8,0039.94,0018.63,0015.79
2024-03-24 12:58:00,SystemResetWarning,0809.8,4.99,000.00,021.2,020.5,000.0,029.9,023.1,22.0,0001.3,0040.03,0018.75,0015.86
2024-03-24 12:59:00,SystemResetWarning,0809.8,5.01,000.00,021.2,020.5,000.0,029.9,023.1,22.1,0001.0,0040.80,0018.76,0015.92
